Time,TemperatureF,DewpointF,PressureIn,WindDirection,WindDirectionDegrees,WindSpeedMPH,WindSpeedGustMPH,Humidity,HourlyPrecipIn,Conditions,Clouds,dailyrainin,SoftwareType,DateUTC
2013-10-09 00:00:00,56.0,53.0,-100.00,ESE,114,3.0,-999.0,88,0.00,,,0.00,,2013-10-09 05:00:00,
2013-10-09 00:42:00,56.0,53.0,-100.00,ESE,114,3.0,-999.0,88,0.00,,,0.00,,2013-10-09 05:42:00,
2013-10-09 00:52:00,56.0,53.0,-100.00,ESE,114,3.0,-999.0,88,0.00,,,0.00,,2013-10-09 05:52:00,
2013-10-09 01:00:00,55.0,52.0,-100.00,SSE,148,3.0,-999.0,91,0.00,,,0.00,,2013-10-09 06:00:00,
2013-10-09 01:42:00,55.0,52.0,-100.00,SSE,148,3.0,-999.0,91,0.00,,,0.00,,2013-10-09 06:42:00,
2013-10-09 01:52:00,55.0,52.0,-100.00,SSE,148,3.0,-999.0,91,0.00,,,0.00,,2013-10-09 06:52:00,
2013-10-09 02:00:00,54.0,51.0,-100.00,South,190,2.0,-999.0,91,0.00,,,0.00,,2013-10-09 07:00:00,
2013-10-09 02:42:00,54.0,51.0,-100.00,South,190,2.0,-999.0,91,0.00,,,0.00,,2013-10-09 07:42:00,
2013-10-09 02:52:00,54.0,51.0,-100.00,South,190,2.0,-999.0,91,0.00,,,0.00,,2013-10-09 07:52:00,
2013-10-09 03:00:00,54.0,51.0,-100.00,ESE,111,3.0,-999.0,90,0.00,,,0.00,,2013-10-09 08:00:00,
2013-10-09 03:42:00,54.0,51.0,-100.00,ESE,111,3.0,-999.0,90,0.00,,,0.00,,2013-10-09 08:42:00,
2013-10-09 03:53:00,54.0,51.0,-100.00,ESE,111,3.0,-999.0,90,0.00,,,0.00,,2013-10-09 08:53:00,
2013-10-09 04:00:00,53.0,50.0,-100.00,SE,142,1.0,-999.0,91,0.00,,,0.00,,2013-10-09 09:00:00,
2013-10-09 04:43:00,53.0,50.0,-100.00,SE,142,1.0,-999.0,91,0.00,,,0.00,,2013-10-09 09:43:00,
2013-10-09 04:53:00,53.0,50.0,-100.00,SE,142,1.0,-999.0,91,0.00,,,0.00,,2013-10-09 09:53:00,
2013-10-09 06:00:00,53.0,53.0,-100.00,North,7,2.0,-999.0,100,0.00,,,0.00,,2013-10-09 11:00:00,
2013-10-09 06:42:00,53.0,53.0,-100.00,North,7,2.0,-999.0,100,0.00,,,0.00,,2013-10-09 11:42:00,
2013-10-09 06:52:00,53.0,53.0,-100.00,North,7,2.0,-999.0,100,0.00,,,0.00,,2013-10-09 11:52:00,
2013-10-09 08:00:00,52.0,52.0,-100.00,NNE,22,2.0,-999.0,100,0.00,,,0.00,,2013-10-09 13:00:00,
2013-10-09 08:42:00,52.0,52.0,-100.00,NNE,22,2.0,-999.0,100,0.00,,,0.00,,2013-10-09 13:42:00,
2013-10-09 08:52:00,52.0,52.0,-100.00,NNE,22,2.0,-999.0,100,0.00,,,0.00,,2013-10-09 13:52:00,
2013-10-09 11:00:00,67.0,59.0,-100.00,SSE,156,5.0,-999.0,78,0.00,,,0.00,,2013-10-09 16:00:00,
2013-10-09 11:42:00,67.0,59.0,-100.00,SSE,156,5.0,-999.0,78,0.00,,,0.00,,2013-10-09 16:42:00,
2013-10-09 11:53:00,67.0,59.0,-100.00,SSE,156,5.0,-999.0,78,0.00,,,0.00,,2013-10-09 16:53:00,
2013-10-09 12:00:00,69.0,60.0,-100.00,SSE,153,5.0,-999.0,71,0.00,,,0.00,,2013-10-09 17:00:00,
2013-10-09 12:42:00,69.0,60.0,-100.00,SSE,153,5.0,-999.0,71,0.00,,,0.00,,2013-10-09 17:42:00,
2013-10-09 12:52:00,69.0,60.0,-100.00,SSE,153,5.0,-999.0,71,0.00,,,0.00,,2013-10-09 17:52:00,
2013-10-09 13:00:00,74.0,60.0,-100.00,South,189,3.0,-999.0,62,0.00,,,0.00,,2013-10-09 18:00:00,
2013-10-09 13:42:00,74.0,60.0,-100.00,South,189,3.0,-999.0,62,0.00,,,0.00,,2013-10-09 18:42:00,
2013-10-09 13:52:00,74.0,60.0,-100.00,South,189,3.0,-999.0,62,0.00,,,0.00,,2013-10-09 18:52:00,
2013-10-09 14:00:00,75.0,59.0,-100.00,SSE,150,3.0,-999.0,57,0.00,,,0.00,,2013-10-09 19:00:00,
2013-10-09 14:42:00,75.0,59.0,-100.00,SSE,150,3.0,-999.0,57,0.00,,,0.00,,2013-10-09 19:42:00,
2013-10-09 14:53:00,75.0,59.0,-100.00,SSE,150,3.0,-999.0,57,0.00,,,0.00,,2013-10-09 19:53:00,
2013-10-09 15:00:00,76.0,58.0,-100.00,South,171,6.0,-999.0,54,0.00,,,0.00,,2013-10-09 20:00:00,
2013-10-09 15:43:00,76.0,58.0,-100.00,South,171,6.0,-999.0,54,0.00,,,0.00,,2013-10-09 20:43:00,
2013-10-09 15:52:00,76.0,58.0,-100.00,South,171,6.0,-999.0,54,0.00,,,0.00,,2013-10-09 20:52:00,
2013-10-09 16:00:00,77.0,58.0,-100.00,SSE,164,7.0,-999.0,53,0.00,,,0.00,,2013-10-09 21:00:00,
2013-10-09 16:44:00,77.0,58.0,-100.00,SSE,164,7.0,-999.0,53,0.00,,,0.00,,2013-10-09 21:44:00,
2013-10-09 16:54:00,77.0,58.0,-100.00,SSE,164,7.0,-999.0,53,0.00,,,0.00,,2013-10-09 21:54:00,
2013-10-09 17:00:00,77.0,58.0,-100.00,SSE,164,6.0,-999.0,52,0.00,,,0.00,,2013-10-09 22:00:00,
2013-10-09 17:43:00,77.0,58.0,-100.00,SSE,164,6.0,-999.0,52,0.00,,,0.00,,2013-10-09 22:43:00,
2013-10-09 17:53:00,77.0,58.0,-100.00,SSE,164,6.0,-999.0,52,0.00,,,0.00,,2013-10-09 22:53:00,
2013-10-09 18:00:00,75.0,58.0,-100.00,ESE,119,4.0,-999.0,56,0.00,,,0.00,,2013-10-09 23:00:00,
2013-10-09 18:43:00,75.0,58.0,-100.00,ESE,119,4.0,-999.0,56,0.00,,,0.00,,2013-10-09 23:43:00,
2013-10-09 18:53:00,75.0,58.0,-100.00,ESE,119,4.0,-999.0,56,0.00,,,0.00,,2013-10-09 23:53:00,
2013-10-09 19:00:00,71.0,57.0,-100.00,East,100,4.0,-999.0,62,0.00,,,0.00,,2013-10-10 00:00:00,
2013-10-09 19:42:00,71.0,57.0,-100.00,East,100,4.0,-999.0,62,0.00,,,0.00,,2013-10-10 00:42:00,
2013-10-09 19:52:00,71.0,57.0,-100.00,East,100,4.0,-999.0,62,0.00,,,0.00,,2013-10-10 00:52:00,
2013-10-09 20:00:00,67.0,57.0,-100.00,SE,127,2.0,-999.0,70,0.00,,,0.00,,2013-10-10 01:00:00,
2013-10-09 20:42:00,67.0,57.0,-100.00,SE,127,2.0,-999.0,70,0.00,,,0.00,,2013-10-10 01:42:00,
2013-10-09 20:52:00,67.0,57.0,-100.00,SE,127,2.0,-999.0,70,0.00,,,0.00,,2013-10-10 01:52:00,
2013-10-09 21:00:00,63.0,57.0,-100.00,SSE,161,3.0,-999.0,79,0.00,,,0.00,,2013-10-10 02:00:00,
2013-10-09 21:52:00,63.0,57.0,-100.00,SSE,161,3.0,-999.0,79,0.00,,,0.00,,2013-10-10 02:52:00,
2013-10-09 22:00:00,61.0,56.0,-100.00,South,174,2.0,-999.0,84,0.00,,,0.00,,2013-10-10 03:00:00,
2013-10-09 22:44:00,61.0,56.0,-100.00,South,174,2.0,-999.0,84,0.00,,,0.00,,2013-10-10 03:44:00,
2013-10-09 22:55:00,61.0,56.0,-100.00,South,174,2.0,-999.0,84,0.00,,,0.00,,2013-10-10 03:55:00,
2013-10-09 23:00:00,58.0,55.0,-100.00,SSE,150,2.0,-999.0,90,0.00,,,0.00,,2013-10-10 04:00:00,
2013-10-09 23:54:00,58.0,55.0,-100.00,SSE,150,2.0,-999.0,90,0.00,,,0.00,,2013-10-10 04:54:00,